Change the Weather History Date:

Saturday, September 21, 2013

  Actual Average Record
Temperature  
Mean Temperature 62 °F -  
Max Temperature 70 °F 58 °F 70 °F (2013)
Min Temperature 54 °F 47 °F 46 °F (2011)
Degree Days  
Heating Degree Days 3    
Growing Degree Days 12 (Base 50)    
Moisture  
Dew Point 60 °F    
Average Humidity 97    
Maximum Humidity 100    
Minimum Humidity 83    
Precipitation  
Precipitation 0.00 in 0.15 in - ()
Sea Level Pressure  
Sea Level Pressure 30.15 in    
Wind  
Wind Speed 7 mph ()    
Max Wind Speed 14 mph    
Max Gust Speed -    
Visibility 3.5 miles    
Events Fog , Rain    
Averages and records for this station are not official NWS values.
T = Trace of Precipitation, MM = Missing Value Source: Averaged Metar Reports

Daily Weather History Graph

Daily Weather History Graph

Search for Another Location

Airport or City:

Trip Planner

Search our weather history database for the weather conditions in past years. The results will help you decide how hot, cold, wet, or windy it might be!

Date:

Astronomy

Sep. 21, 2013 Rise Set
Actual Time 7:18 AM IST 7:34 PM IST
Civil Twilight 6:44 AM IST 8:07 PM IST
Nautical Twilight 6:04 AM IST 8:47 PM IST
Astronomical Twilight 5:23 AM IST 9:29 PM IST
Moon 8:13 PM IST (9/21) 9:43 AM IST (9/21)
Length of Visible Light 13h 23m
Length of Day
12h 15m
Waning Gibbous, 95% of the Moon is Illuminated
Sep 21
Waning Gibbous
Sep 27
Last Quarter
Oct 5
New
Oct 12
First Quarter
Oct 19
Full

Hourly Weather History & Observations

Time (IST) Temp. Dew Point Humidity Pressure Visibility Wind Dir Wind Speed Gust Speed Precip Events Conditions
12:00 AM 59.0 °F 59.0 °F 100% 30.06 in 0.4 mi SSW 6.9 mph - N/A Fog Light Drizzle
12:30 AM 59.0 °F 59.0 °F 100% 30.06 in 0.3 mi SSW 6.9 mph - N/A Fog Light Drizzle
1:00 AM 58 °F 58 °F 100% 30.07 in 0 mi SW 4.5 mph - - Rain Light Drizzle
1:00 AM 59.0 °F 59.0 °F 100% 30.06 in 0.3 mi SW 4.6 mph - N/A Fog Light Drizzle
1:30 AM 59.0 °F 59.0 °F 100% 30.06 in 0.6 mi WSW 8.1 mph - N/A Fog Light Drizzle
2:00 AM 59.0 °F 59.0 °F 100% 30.06 in 0.5 mi SW 6.9 mph - N/A Fog Fog
2:30 AM 59.0 °F 59.0 °F 100% 30.06 in 0.6 mi SW 8.1 mph - N/A Fog Fog
3:00 AM 57.2 °F 57.2 °F 100% 30.06 in 0.4 mi SW 9.2 mph - N/A Fog Fog
3:30 AM 57.2 °F 57.2 °F 100% 30.06 in 0.4 mi SW 8.1 mph - N/A Fog Fog
4:00 AM 57.2 °F 57.2 °F 100% 30.06 in 0.6 mi WSW 9.2 mph - N/A   Unknown
4:30 AM 57.2 °F 57.2 °F 100% 30.06 in 6.2 mi WSW 9.2 mph - N/A   Mostly Cloudy
5:00 AM 57.2 °F 57.2 °F 100% 30.06 in 6.2 mi WSW 8.1 mph - N/A   Mostly Cloudy
5:30 AM 57.2 °F 57.2 °F 100% 30.06 in 6.2 mi WSW 5.8 mph - N/A   Mostly Cloudy
6:00 AM 55.4 °F 55.4 °F 100% 30.09 in 0.6 mi SW 6.9 mph - N/A Fog Fog
6:30 AM 55.4 °F 55.4 °F 100% 30.09 in 0.6 mi WSW 4.6 mph - N/A Fog Fog
7:00 AM 55 °F 55 °F 98% 30.12 in 0 mi SSW 2.2 mph - - Fog Heavy Fog
7:00 AM 55.4 °F 55.4 °F 100% 30.09 in 0.5 mi SSW 2.3 mph - N/A Fog Fog
7:30 AM 55.4 °F 55.4 °F 100% 30.12 in 0.5 mi SW 1.2 mph - N/A Fog Fog
8:00 AM 55.4 °F 55.4 °F 100% 30.12 in 0.2 mi SSW 4.6 mph - N/A Fog Fog
8:30 AM 55.4 °F 55.4 °F 100% 30.12 in 1.6 mi SSW 6.9 mph - N/A   Mostly Cloudy
9:00 AM 57.2 °F 57.2 °F 100% 30.12 in 4.3 mi SW 9.2 mph - N/A   Mostly Cloudy
9:30 AM 57.2 °F 57.2 °F 100% 30.12 in 3.7 mi SW 9.2 mph - N/A   Mostly Cloudy
10:00 AM 59.0 °F 59.0 °F 100% 30.15 in 1.4 mi SW 10.4 mph - N/A   Mostly Cloudy
10:30 AM 60.8 °F 60.8 °F 100% 30.15 in 3.7 mi WSW 9.2 mph - N/A   Mostly Cloudy
11:00 AM 62.6 °F 62.6 °F 100% 30.15 in 6.2 mi SW 9.2 mph - N/A   Mostly Cloudy
11:30 AM 62.6 °F 62.6 °F 100% 30.18 in 6.2 mi SW 9.2 mph - N/A   Mostly Cloudy
12:00 PM 64.4 °F 64.4 °F 100% 30.18 in 6.2 mi WSW 9.2 mph - N/A   Mostly Cloudy
12:30 PM 66.2 °F 64.4 °F 94% 30.18 in 6.2 mi WSW 11.5 mph - N/A   Mostly Cloudy
1:00 PM 66 °F 64 °F 92% 30.19 in 19 mi WSW 11.2 mph - -   Partly Cloudy
1:00 PM 66.2 °F 64.4 °F 94% 30.18 in 6.2 mi WSW 11.5 mph - N/A   Mostly Cloudy
1:30 PM 66.2 °F 64.4 °F 94% 30.18 in 6.2 mi WSW 11.5 mph - N/A   Mostly Cloudy
2:00 PM 68.0 °F 64.4 °F 88% 30.18 in 6.2 mi WSW 10.4 mph - N/A   Mostly Cloudy
2:30 PM 69.8 °F 64.4 °F 83% 30.18 in 6.2 mi WSW 10.4 mph - N/A   Mostly Cloudy
3:00 PM 69.8 °F 64.4 °F 83% 30.18 in 6.2 mi SW 9.2 mph - N/A   Mostly Cloudy
3:30 PM 68.0 °F 64.4 °F 88% 30.18 in 6.2 mi SW 11.5 mph - N/A   Mostly Cloudy
4:00 PM 66.2 °F 62.6 °F 88% 30.21 in 6.2 mi SW 11.5 mph - N/A   Mostly Cloudy
4:30 PM 66.2 °F 64.4 °F 94% 30.21 in 6.2 mi SW 12.7 mph - N/A   Mostly Cloudy
5:00 PM 64.4 °F 62.6 °F 94% 30.21 in 6.2 mi WSW 13.8 mph - N/A   Mostly Cloudy
5:30 PM 64.4 °F 62.6 °F 94% 30.21 in 6.2 mi WSW 12.7 mph - N/A   Mostly Cloudy
6:00 PM 64.4 °F 62.6 °F 94% 30.21 in 6.2 mi WSW 10.4 mph - N/A   Mostly Cloudy
6:30 PM 64.4 °F 60.8 °F 88% 30.21 in 6.2 mi WSW 10.4 mph - N/A   Mostly Cloudy
7:00 PM 64 °F 61 °F 88% 30.23 in 22 mi SW 8.9 mph - -   Mostly Cloudy
7:00 PM 64.4 °F 60.8 °F 88% 30.21 in 6.2 mi SW 8.1 mph - N/A   Mostly Cloudy
7:30 PM 60.8 °F 60.8 °F 100% 30.24 in 6.2 mi SSW 11.5 mph - N/A   Mostly Cloudy
8:00 PM 60.8 °F 60.8 °F 100% 30.24 in 5.0 mi SSW 9.2 mph - N/A Rain Light Rain
8:30 PM 60.8 °F 60.8 °F 100% 30.24 in 0.2 mi SW 8.1 mph - N/A Fog , Rain Light Rain
9:00 PM 60.8 °F 60.8 °F 100% 30.24 in 0.3 mi SW 8.1 mph - N/A Fog Light Drizzle
9:30 PM 59.0 °F 59.0 °F 100% 30.24 in 0.5 mi SSW 9.2 mph - N/A Fog Light Drizzle
10:00 PM 59.0 °F 59.0 °F 100% 30.24 in 0.6 mi SSW 9.2 mph - N/A Fog Fog
10:30 PM 59.0 °F 59.0 °F 100% 30.24 in 1.1 mi SW 8.1 mph - N/A   Mostly Cloudy
11:00 PM 59.0 °F 59.0 °F 100% 30.27 in 0.9 mi SW 9.2 mph - N/A   Mostly Cloudy
11:30 PM 59.0 °F 59.0 °F 100% 30.27 in 0.9 mi SW 6.9 mph - N/A   Mostly Cloudy